QPF
0.00 0.00 0.00 0.00 0.00 0.00 0.01 0.01 0.02 0.01 0.02 0.02 0.02 0.04 0.04 0.03 0.03 0.03 0.03 0.03 0.05 0.06 0.04 0.04 0.04 0.05 0.05 0.05 0.05 0.06 0.06 0.06 0.07 0.07 0.06 0.05 0.04 0.04 0.03 0.03 0.03 0.03 0.04 0.04
0.00 0.00 0.00 0.00 0.00 0.00 0.00 0.01 0.01 0.01 0.02 0.02 0.02 0.03 0.03 0.03 0.03 0.03 0.03 0.04 0.05 0.05 0.05 0.05 0.06 0.07 0.07 0.06 0.06 0.06 0.06 0.06 0.05 0.06 0.05 0.04 0.04 0.04 0.04 0.04 0.04 0.04 0.03 0.04
0.00 0.00 0.00 0.00 0.00 0.00 0.01 0.01 0.02 0.02 0.02 0.02 0.02 0.02 0.03 0.03 0.03 0.03 0.03 0.03 0.04 0.06 0.06 0.06 0.07 0.09 0.08 0.06 0.07 0.07 0.05 0.04 0.04 0.05 0.05 0.05 0.04 0.04 0.05 0.05 0.04 0.04 0.04 0.04
0.01 0.01 0.00 0.01 0.01 0.01 0.01 0.01 0.01 0.01 0.01 0.02 0.01 0.02 0.03 0.03 0.03 0.02 0.02 0.02 0.03 0.05 0.06 0.06 0.07 0.09 0.09 0.08 0.08 0.06 0.05 0.04 0.04 0.04 0.04 0.04 0.04 0.04 0.06 0.05 0.05 0.06 0.06 0.05
0.02 0.01 0.01 0.01 0.01 0.01 0.01 0.01 0.01 0.01 0.01 0.01 0.01 0.01 0.02 0.02 0.03 0.03 0.03 0.03 0.03 0.04 0.05 0.05 0.06 0.08 0.09 0.08 0.08 0.06 0.05 0.04 0.04 0.04 0.03 0.03 0.04 0.04 0.05 0.06 0.06 0.05 0.05 0.06
0.02 0.01 0.01 0.01 0.01 0.01 0.01 0.01 0.01 0.01 0.01 0.01 0.01 0.02 0.03 0.03 0.03 0.03 0.02 0.03 0.03 0.02 0.03 0.04 0.05 0.06 0.07 0.07 0.07 0.05 0.04 0.04 0.04 0.04 0.03 0.03 0.03 0.03 0.04 0.06 0.07 0.06 0.05 0.05
0.02 0.01 0.00 0.00 0.01 0.01 0.01 0.01 0.00 0.00 0.01 0.01 0.02 0.03 0.03 0.03 0.03 0.03 0.02 0.02 0.02 0.02 0.02 0.03 0.04 0.05 0.05 0.06 0.06 0.05 0.03 0.03 0.03 0.03 0.03 0.03 0.03 0.03 0.04 0.04 0.06 0.07 0.06 0.06
0.01 0.02 0.01 0.00 0.01 0.01 0.01 0.00 0.01 0.01 0.01 0.01 0.02 0.02 0.02 0.03 0.03 0.02 0.02 0.02 0.02 0.02 0.02 0.03 0.04 0.04 0.05 0.05 0.05 0.05 0.03 0.02 0.03 0.03 0.03 0.03 0.03 0.03 0.03 0.04 0.04 0.05 0.05 0.05
0.01 0.00 0.00 0.00 0.01 0.01 0.01 0.01 0.00 0.01 0.01 0.01 0.02 0.02 0.03 0.03 0.03 0.03 0.02 0.02 0.02 0.02 0.02 0.03 0.04 0.03 0.04 0.04 0.04 0.04 0.04 0.03 0.03 0.03 0.03 0.03 0.03 0.03 0.03 0.03 0.03 0.03 0.03 0.04
0.00 0.00 0.00 0.00 0.00 0.00 0.01 0.01 0.01 0.00 0.01 0.01 0.01 0.02 0.04 0.03 0.04 0.04 0.03 0.02 0.02 0.03 0.03 0.04 0.04 0.04 0.04 0.04 0.04 0.04 0.05 0.05 0.03 0.03 0.03 0.03 0.04 0.03 0.03 0.03 0.03 0.03 0.03 0.04
0.00 0.00 0.00 0.00 0.00 0.00 0.00 0.00 0.00 0.00 0.01 0.01 0.02 0.03 0.03 0.03 0.04 0.04 0.03 0.02 0.02 0.02 0.03 0.04 0.04 0.04 0.04 0.04 0.04 0.05 0.04 0.04 0.05 0.04 0.04 0.04 0.04 0.03 0.03 0.03 0.03 0.03 0.03 0.03
0.01 0.00 0.01 0.00 0.00 0.00 0.00 0.00 0.01 0.01 0.01 0.01 0.02 0.02 0.02 0.03 0.03 0.04 0.03 0.02 0.02 0.02 0.03 0.04 0.04 0.04 0.04 0.04 0.04 0.04 0.04 0.03 0.03 0.04 0.04 0.03 0.03 0.03 0.03 0.03 0.02 0.02 0.02 0.03
0.00 0.00 0.00 0.00 0.00 0.00 0.00 0.00 0.01 0.01 0.01 0.01 0.02 0.02 0.02 0.03 0.03 0.03 0.03 0.02 0.03 0.03 0.03 0.04 0.04 0.04 0.04 0.04 0.04 0.04 0.04 0.03 0.03 0.03 0.03 0.03 0.03 0.02 0.03 0.03 0.03 0.02 0.02 0.02
0.00 0.00 0.00 0.00 0.00 0.00 0.00 0.01 0.01 0.01 0.01 0.01 0.02 0.02 0.02 0.02 0.03 0.03 0.02 0.03 0.03 0.03 0.03 0.04 0.04 0.04 0.04 0.04 0.04 0.04 0.04 0.03 0.03 0.02 0.02 0.02 0.02 0.02 0.02 0.02 0.03 0.03 0.02 0.02
0.00 0.00 0.00 0.00 0.00 0.00 0.01 0.01 0.01 0.01 0.01 0.02 0.02 0.02 0.02 0.02 0.02 0.02 0.03 0.03 0.03 0.02 0.03 0.03 0.04 0.04 0.03 0.03 0.03 0.03 0.04 0.03 0.03 0.02 0.02 0.02 0.02 0.02 0.02 0.02 0.02 0.02 0.02 0.02
0.00 0.00 0.00 0.00 0.00 0.01 0.01 0.01 0.02 0.02 0.02 0.02 0.02 0.02 0.02 0.02 0.02 0.02 0.02 0.03 0.03 0.02 0.03 0.03 0.03 0.03 0.03 0.03 0.03 0.03 0.03 0.03 0.03 0.02 0.02 0.02 0.01 0.01 0.02 0.01 0.01 0.01 0.01 0.01
0.00 0.00 0.00 0.00 0.00 0.00 0.01 0.01 0.02 0.02 0.02 0.02 0.02 0.03 0.03 0.02 0.02 0.02 0.02 0.03 0.03 0.03 0.03 0.03 0.03 0.03 0.03 0.03 0.02 0.02 0.02 0.03 0.02 0.02 0.01 0.01 0.01 0.01 0.02 0.01 0.01 0.01 0.01 0.01
0.01 0.00 0.00 0.00 0.00 0.01 0.01 0.01 0.02 0.02 0.03 0.02 0.02 0.03 0.03 0.03 0.02 0.02 0.02 0.03 0.03 0.03 0.03 0.03 0.03 0.02 0.02 0.02 0.02 0.02 0.02 0.02 0.02 0.02 0.01 0.01 0.01 0.01 0.01 0.01 0.01 0.01 0.01 0.01
0.00 0.00 0.00 0.00 0.00 0.01 0.01 0.01 0.01 0.02 0.03 0.02 0.02 0.02 0.02 0.03 0.02 0.02 0.02 0.02 0.03 0.03 0.03 0.03 0.03 0.02 0.02 0.01 0.01 0.01 0.01 0.01 0.02 0.02 0.01 0.01 0.01 0.01 0.01 0.01 0.01 0.01 0.01 0.01
0.01 0.01 0.01 0.00 0.00 0.00 0.01 0.01 0.01 0.02 0.02 0.02 0.02 0.02 0.02 0.03 0.02 0.02 0.02 0.03 0.03 0.02 0.03 0.03 0.02 0.02 0.01 0.01 0.01 0.01 0.01 0.01 0.01 0.01 0.01 0.01 0.01 0.01 0.01 0.01 0.01 0.01 0.01 0.01
0.01 0.01 0.00 0.00 0.00 0.00 0.01 0.01 0.01 0.02 0.02 0.02 0.02 0.02 0.02 0.02 0.02 0.02 0.02 0.03 0.03 0.02 0.02 0.03 0.02 0.02 0.01 0.01 0.02 0.01 0.01 0.01 0.01 0.01 0.01 0.01 0.01 0.01 0.01 0.01 0.01 0.01 0.01 0.01
0.00 0.00 0.00 0.00 0.00 0.00 0.01 0.01 0.01 0.02 0.02 0.02 0.02 0.02 0.02 0.02 0.02 0.02 0.02 0.02 0.03 0.03 0.02 0.02 0.02 0.02 0.02 0.02 0.01 0.01 0.01 0.01 0.01 0.01 0.01 0.01 0.01 0.01 0.01 0.01 0.01 0.01 0.01 0.02
0.00 0.00 0.00 0.00 0.00 0.01 0.01 0.01 0.01 0.01 0.02 0.02 0.02 0.02 0.02 0.02 0.02 0.02 0.02 0.02 0.02 0.02 0.02 0.02 0.02 0.02 0.02 0.01 0.01 0.01 0.01 0.01 0.01 0.01 0.01 0.01 0.01 0.01 0.01 0.01 0.01 0.01 0.02 0.02
0.00 0.00 0.00 0.00 0.00 0.01 0.01 0.01 0.01 0.01 0.02 0.02 0.02 0.02 0.02 0.02 0.02 0.01 0.02 0.02 0.02 0.02 0.02 0.02 0.02 0.02 0.01 0.01 0.01 0.01 0.01 0.01 0.01 0.01 0.01 0.01 0.01 0.01 0.01 0.01 0.01 0.02 0.02 0.02
0.00 0.00 0.00 0.00 0.00 0.01 0.01 0.01 0.01 0.01 0.02 0.02 0.02 0.02 0.02 0.02 0.02 0.01 0.01 0.01 0.01 0.01 0.01 0.01 0.01 0.01 0.01 0.01 0.01 0.01 0.01 0.01 0.01 0.01 0.01 0.01 0.01 0.01 0.01 0.01 0.01 0.02 0.02 0.02
0.00 0.00 0.00 0.00 0.00 0.01 0.01 0.01 0.01 0.01 0.01 0.02 0.02 0.02 0.02 0.02 0.02 0.01 0.01 0.01 0.01 0.01 0.01 0.01 0.01 0.01 0.01 0.01 0.01 0.01 0.01 0.01 0.01 0.01 0.01 0.01 0.01 0.01 0.01 0.01 0.01 0.02 0.02 0.02
0.00 0.00 0.00 0.00 0.00 0.01 0.01 0.01 0.01 0.01 0.02 0.02 0.02 0.02 0.02 0.02 0.02 0.02 0.01 0.01 0.01 0.01 0.01 0.01 0.01 0.01 0.01 0.01 0.01 0.01 0.01 0.01 0.01 0.01 0.01 0.01 0.01 0.01 0.01 0.02 0.02 0.02 0.02 0.02
MSLP
1014.49 1014.42 1014.24 1013.90 1013.38 1012.65 1011.71 1010.61 1009.41 1008.18 1007.03 1006.03 1005.29 1004.84 1004.70 1004.88 1005.33 1005.99 1006.80 1007.70 1008.60 1009.46 1010.25 1010.93 1011.51 1011.99 1012.35 1012.61 1012.78 1012.84 1012.81 1012.69 1012.50 1012.24 1011.94 1011.62 1011.28 1010.94 1010.60 1010.25 1009.88 1009.46 1008.98 1008.43
1013.88 1013.65 1013.31 1012.82 1012.17 1011.34 1010.37 1009.28 1008.15 1007.05 1006.05 1005.22 1004.63 1004.31 1004.27 1004.50 1004.96 1005.59 1006.36 1007.18 1008.02 1008.83 1009.58 1010.26 1010.86 1011.36 1011.77 1012.08 1012.29 1012.40 1012.40 1012.30 1012.12 1011.86 1011.55 1011.21 1010.85 1010.49 1010.13 1009.76 1009.39 1008.98 1008.53 1008.02
1013.25 1012.88 1012.39 1011.76 1011.00 1010.11 1009.12 1008.08 1007.05 1006.08 1005.23 1004.58 1004.14 1003.96 1004.01 1004.29 1004.75 1005.36 1006.07 1006.83 1007.60 1008.35 1009.07 1009.72 1010.32 1010.83 1011.27 1011.61 1011.85 1011.99 1012.02 1011.94 1011.76 1011.50 1011.18 1010.82 1010.43 1010.05 1009.66 1009.27 1008.88 1008.48 1008.04 1007.56
1012.57 1012.06 1011.45 1010.71 1009.88 1008.97 1008.01 1007.04 1006.13 1005.31 1004.64 1004.15 1003.87 1003.80 1003.94 1004.26 1004.73 1005.30 1005.96 1006.65 1007.36 1008.05 1008.71 1009.33 1009.90 1010.41 1010.85 1011.20 1011.45 1011.60 1011.63 1011.56 1011.39 1011.13 1010.80 1010.43 1010.03 1009.62 1009.21 1008.81 1008.40 1007.99 1007.57 1007.11
1011.76 1011.14 1010.43 1009.64 1008.78 1007.90 1007.01 1006.15 1005.38 1004.73 1004.23 1003.90 1003.76 1003.81 1004.02 1004.37 1004.83 1005.38 1005.99 1006.62 1007.26 1007.88 1008.49 1009.07 1009.60 1010.08 1010.50 1010.83 1011.06 1011.20 1011.22 1011.14 1010.97 1010.71 1010.39 1010.02 1009.62 1009.21 1008.79 1008.38 1007.97 1007.56 1007.14 1006.70
1010.74 1010.03 1009.27 1008.47 1007.65 1006.83 1006.06 1005.35 1004.75 1004.27 1003.94 1003.77 1003.76 1003.90 1004.17 1004.54 1005.00 1005.53 1006.08 1006.66 1007.24 1007.81 1008.36 1008.89 1009.37 1009.80 1010.17 1010.46 1010.65 1010.75 1010.75 1010.66 1010.48 1010.22 1009.91 1009.56 1009.18 1008.78 1008.38 1007.98 1007.58 1007.18 1006.77 1006.36
1009.45 1008.70 1007.93 1007.16 1006.42 1005.73 1005.10 1004.57 1004.15 1003.85 1003.69 1003.66 1003.76 1003.98 1004.30 1004.69 1005.15 1005.65 1006.17 1006.70 1007.24 1007.76 1008.27 1008.74 1009.17 1009.54 1009.85 1010.07 1010.21 1010.26 1010.22 1010.10 1009.91 1009.66 1009.37 1009.04 1008.70 1008.35 1007.98 1007.61 1007.24 1006.86 1006.47 1006.08
1007.90 1007.12 1006.38 1005.69 1005.07 1004.52 1004.08 1003.73 1003.50 1003.38 1003.37 1003.48 1003.68 1003.96 1004.32 1004.73 1005.19 1005.67 1006.18 1006.69 1007.20 1007.69 1008.16 1008.59 1008.96 1009.27 1009.51 1009.67 1009.74 1009.73 1009.64 1009.48 1009.28 1009.04 1008.77 1008.48 1008.19 1007.89 1007.58 1007.26 1006.93 1006.59 1006.23 1005.87
1006.14 1005.38 1004.69 1004.10 1003.61 1003.23 1002.97 1002.81 1002.76 1002.81 1002.94 1003.16 1003.45 1003.80 1004.19 1004.63 1005.09 1005.58 1006.09 1006.59 1007.09 1007.58 1008.02 1008.42 1008.75 1009.01 1009.19 1009.27 1009.27 1009.19 1009.05 1008.86 1008.63 1008.40 1008.15 1007.91 1007.67 1007.43 1007.18 1006.92 1006.65 1006.35 1006.03 1005.69
1004.30 1003.56 1002.95 1002.47 1002.12 1001.91 1001.82 1001.83 1001.95 1002.14 1002.40 1002.72 1003.09 1003.49 1003.93 1004.39 1004.88 1005.39 1005.91 1006.43 1006.95 1007.43 1007.88 1008.26 1008.56 1008.77 1008.89 1008.91 1008.84 1008.70 1008.50 1008.27 1008.03 1007.79 1007.56 1007.35 1007.16 1006.98 1006.79 1006.59 1006.37 1006.11 1005.83 1005.52
1002.53 1001.84 1001.31 1000.94 1000.72 1000.65 1000.71 1000.87 1001.12 1001.44 1001.81 1002.21 1002.65 1003.11 1003.59 1004.09 1004.61 1005.16 1005.71 1006.26 1006.80 1007.30 1007.75 1008.12 1008.40 1008.58 1008.65 1008.62 1008.49 1008.30 1008.05 1007.78 1007.52 1007.27 1007.05 1006.86 1006.70 1006.56 1006.42 1006.26 1006.08 1005.87 1005.61 1005.33
1001.02 1000.39 999.94 999.66 999.55 999.60 999.77 1000.05 1000.41 1000.82 1001.27 1001.75 1002.25 1002.77 1003.30 1003.84 1004.41 1004.98 1005.57 1006.15 1006.71 1007.23 1007.68 1008.05 1008.31 1008.46 1008.49 1008.41 1008.24 1008.00 1007.71 1007.41 1007.12 1006.86 1006.64 1006.46 1006.31 1006.18 1006.07 1005.94 1005.78 1005.59 1005.36 1005.09
999.91 999.35 998.97 998.77 998.74 998.87 999.12 999.48 999.91 1000.39 1000.91 1001.46 1002.02 1002.58 1003.16 1003.76 1004.36 1004.97 1005.58 1006.17 1006.74 1007.25 1007.69 1008.04 1008.28 1008.39 1008.39 1008.28 1008.07 1007.79 1007.48 1007.15 1006.84 1006.55 1006.32 1006.13 1005.98 1005.85 1005.73 1005.61 1005.46 1005.27 1005.05 1004.78
999.30 998.81 998.49 998.35 998.38 998.55 998.85 999.25 999.73 1000.27 1000.84 1001.43 1002.04 1002.66 1003.28 1003.91 1004.54 1005.16 1005.77 1006.36 1006.90 1007.38 1007.78 1008.09 1008.28 1008.35 1008.31 1008.16 1007.93 1007.63 1007.30 1006.95 1006.62 1006.32 1006.07 1005.86 1005.69 1005.54 1005.40 1005.26 1005.09 1004.90 1004.67 1004.41
999.20 998.79 998.53 998.43 998.48 998.68 999.00 999.42 999.92 1000.49 1001.10 1001.74 1002.39 1003.04 1003.70 1004.34 1004.97 1005.58 1006.15 1006.69 1007.17 1007.58 1007.91 1008.14 1008.27 1008.29 1008.20 1008.02 1007.77 1007.46 1007.12 1006.77 1006.43 1006.12 1005.85 1005.61 1005.41 1005.23 1005.06 1004.88 1004.69 1004.48 1004.24 1003.97
999.58 999.24 999.03 998.96 999.03 999.23 999.55 999.97 1000.49 1001.07 1001.70 1002.37 1003.04 1003.72 1004.38 1005.02 1005.62 1006.17 1006.68 1007.13 1007.50 1007.81 1008.02 1008.15 1008.19 1008.14 1008.01 1007.80 1007.53 1007.22 1006.89 1006.54 1006.21 1005.90 1005.62 1005.36 1005.12 1004.90 1004.69 1004.48 1004.26 1004.02 1003.77 1003.51
1000.35 1000.08 999.92 999.87 999.94 1000.13 1000.44 1000.86 1001.37 1001.95 1002.59 1003.26 1003.95 1004.62 1005.26 1005.86 1006.40 1006.87 1007.27 1007.59 1007.83 1007.99 1008.08 1008.09 1008.02 1007.89 1007.70 1007.47 1007.19 1006.89 1006.58 1006.26 1005.95 1005.64 1005.35 1005.08 1004.82 1004.56 1004.31 1004.06 1003.81 1003.56 1003.30 1003.04
1001.38 1001.19 1001.07 1001.04 1001.11 1001.29 1001.58 1001.98 1002.47 1003.05 1003.68 1004.34 1005.01 1005.65 1006.25 1006.78 1007.22 1007.58 1007.84 1008.01 1008.09 1008.10 1008.03 1007.91 1007.74 1007.54 1007.30 1007.04 1006.77 1006.49 1006.21 1005.92 1005.63 1005.34 1005.06 1004.77 1004.49 1004.21 1003.93 1003.65 1003.37 1003.10 1002.84 1002.60
1002.55 1002.43 1002.37 1002.36 1002.43 1002.60 1002.87 1003.24 1003.71 1004.25 1004.85 1005.48 1006.10 1006.69 1007.21 1007.64 1007.97 1008.20 1008.31 1008.32 1008.24 1008.09 1007.88 1007.64 1007.38 1007.10 1006.83 1006.57 1006.31 1006.05 1005.80 1005.55 1005.29 1005.03 1004.75 1004.46 1004.17 1003.87 1003.56 1003.26 1002.97 1002.69 1002.43 1002.20
1003.74 1003.71 1003.69 1003.72 1003.80 1003.96 1004.21 1004.55 1004.97 1005.47 1006.02 1006.59 1007.14 1007.64 1008.06 1008.38 1008.58 1008.67 1008.63 1008.49 1008.26 1007.98 1007.65 1007.31 1006.98 1006.66 1006.37 1006.10 1005.86 1005.64 1005.42 1005.20 1004.97 1004.73 1004.46 1004.17 1003.86 1003.54 1003.22 1002.91 1002.61 1002.33 1002.07 1001.85
1004.88 1004.93 1004.98 1005.04 1005.14 1005.29 1005.52 1005.82 1006.20 1006.63 1007.11 1007.59 1008.05 1008.44 1008.75 1008.95 1009.02 1008.97 1008.80 1008.53 1008.19 1007.80 1007.39 1006.99 1006.61 1006.27 1005.97 1005.72 1005.50 1005.30 1005.11 1004.92 1004.70 1004.46 1004.19 1003.90 1003.58 1003.25 1002.91 1002.58 1002.27 1001.99 1001.74 1001.53
1005.91 1006.05 1006.17 1006.27 1006.39 1006.54 1006.75 1007.01 1007.33 1007.69 1008.08 1008.46 1008.80 1009.08 1009.26 1009.34 1009.29 1009.12 1008.84 1008.48 1008.05 1007.60 1007.14 1006.71 1006.31 1005.97 1005.68 1005.45 1005.24 1005.06 1004.88 1004.70 1004.48 1004.24 1003.95 1003.64 1003.30 1002.95 1002.60 1002.26 1001.94 1001.65 1001.40 1001.18
1006.82 1007.05 1007.24 1007.39 1007.53 1007.69 1007.87 1008.09 1008.34 1008.62 1008.90 1009.18 1009.40 1009.56 1009.62 1009.58 1009.42 1009.16 1008.80 1008.37 1007.90 1007.41 1006.94 1006.50 1006.11 1005.78 1005.51 1005.28 1005.09 1004.91 1004.72 1004.52 1004.28 1004.01 1003.70 1003.36 1002.99 1002.62 1002.25 1001.89 1001.56 1001.27 1001.01 1000.79
1007.61 1007.93 1008.18 1008.38 1008.55 1008.71 1008.87 1009.04 1009.22 1009.42 1009.60 1009.76 1009.87 1009.91 1009.85 1009.71 1009.46 1009.13 1008.71 1008.25 1007.76 1007.26 1006.80 1006.37 1006.00 1005.68 1005.41 1005.19 1004.98 1004.79 1004.57 1004.34 1004.06 1003.74 1003.39 1003.01 1002.61 1002.20 1001.81 1001.44 1001.10 1000.80 1000.53 1000.29
1008.31 1008.69 1009.00 1009.24 1009.43 1009.59 1009.73 1009.85 1009.98 1010.09 1010.18 1010.24 1010.23 1010.16 1010.02 1009.78 1009.46 1009.07 1008.62 1008.14 1007.64 1007.15 1006.70 1006.29 1005.93 1005.61 1005.34 1005.10 1004.87 1004.63 1004.37 1004.08 1003.75 1003.38 1002.97 1002.54 1002.11 1001.67 1001.26 1000.87 1000.53 1000.21 999.94 999.69
1008.92 1009.35 1009.70 1009.97 1010.17 1010.33 1010.45 1010.54 1010.61 1010.65 1010.66 1010.62 1010.53 1010.37 1010.14 1009.83 1009.45 1009.02 1008.54 1008.05 1007.55 1007.06 1006.61 1006.21 1005.84 1005.52 1005.22 1004.95 1004.67 1004.38 1004.06 1003.70 1003.31 1002.88 1002.42 1001.95 1001.48 1001.02 1000.59 1000.19 999.84 999.52 999.24 998.98
1009.47 1009.93 1010.29 1010.57 1010.78 1010.93 1011.03 1011.09 1011.11 1011.10 1011.05 1010.94 1010.77 1010.54 1010.24 1009.88 1009.46 1008.98 1008.48 1007.97 1007.46 1006.96 1006.50 1006.08 1005.69 1005.34 1005.00 1004.67 1004.34 1003.98 1003.60 1003.18 1002.73 1002.24 1001.74 1001.24 1000.74 1000.27 999.83 999.44 999.08 998.77 998.49 998.23
Thickness
5436 5436 5433 5434 5433 5428 5427 5439 5446 5462 5459 5463 5455 5447 5442 5440 5439 5438 5437 5435 5432 5431 5431 5429 5428 5427 5427 5429 5430 5432 5434 5437 5439 5440 5442 5444 5446 5448 5451 5453 5456 5458 5460 5462
5424 5426 5424 5425 5432 5431 5429 5432 5437 5444 5450 5452 5444 5438 5435 5434 5432 5430 5428 5426 5424 5422 5421 5420 5419 5418 5419 5419 5421 5423 5425 5427 5429 5431 5433 5435 5437 5439 5442 5444 5447 5449 5451 5454
5434 5416 5414 5437 5439 5430 5429 5430 5431 5439 5446 5440 5436 5433 5429 5426 5424 5422 5421 5418 5416 5414 5411 5410 5410 5410 5410 5411 5413 5414 5416 5418 5420 5422 5424 5426 5428 5431 5433 5435 5438 5440 5442 5445
5415 5412 5425 5451 5429 5428 5426 5427 5425 5428 5432 5429 5426 5423 5421 5419 5417 5416 5414 5411 5408 5405 5403 5402 5401 5402 5403 5404 5405 5406 5407 5409 5411 5413 5416 5418 5420 5422 5424 5427 5429 5431 5434 5436
5404 5417 5438 5441 5425 5416 5414 5425 5424 5420 5422 5421 5417 5418 5422 5414 5409 5406 5405 5402 5400 5397 5394 5393 5393 5394 5395 5397 5398 5399 5400 5402 5403 5405 5408 5410 5412 5414 5416 5418 5421 5423 5425 5428
5394 5409 5432 5443 5416 5407 5408 5423 5422 5413 5414 5412 5407 5419 5422 5407 5401 5398 5396 5394 5391 5389 5387 5387 5387 5387 5389 5390 5391 5392 5393 5394 5396 5398 5400 5402 5404 5406 5408 5411 5413 5416 5418 5421
5391 5401 5426 5424 5403 5400 5415 5428 5411 5406 5405 5401 5400 5404 5401 5395 5392 5390 5388 5386 5384 5382 5381 5380 5381 5381 5382 5384 5384 5385 5385 5386 5388 5391 5393 5395 5397 5399 5401 5403 5406 5409 5411 5414
5387 5395 5419 5407 5397 5405 5416 5406 5400 5397 5395 5392 5391 5389 5388 5387 5385 5382 5380 5379 5377 5376 5375 5374 5374 5375 5376 5377 5377 5378 5379 5381 5383 5384 5386 5388 5390 5392 5394 5396 5399 5401 5404 5406
5400 5416 5413 5401 5401 5400 5395 5394 5393 5391 5387 5384 5382 5382 5380 5379 5378 5376 5374 5372 5370 5370 5370 5369 5369 5369 5370 5370 5371 5372 5373 5375 5377 5378 5380 5381 5383 5385 5386 5388 5391 5393 5395 5398
5385 5402 5401 5396 5394 5390 5387 5386 5385 5382 5379 5377 5376 5375 5373 5372 5371 5369 5368 5365 5363 5363 5364 5364 5363 5363 5363 5364 5365 5366 5368 5369 5370 5372 5373 5374 5375 5376 5378 5380 5382 5384 5387 5389
5384 5396 5394 5396 5391 5389 5384 5381 5378 5375 5372 5370 5369 5368 5366 5365 5364 5362 5361 5359 5357 5357 5358 5358 5358 5357 5358 5358 5359 5360 5361 5362 5364 5364 5365 5366 5366 5367 5368 5370 5372 5374 5377 5380
5403 5401 5394 5398 5391 5384 5379 5377 5373 5369 5367 5365 5362 5361 5359 5358 5357 5355 5354 5353 5353 5352 5352 5352 5352 5352 5352 5352 5353 5354 5355 5356 5357 5358 5358 5359 5359 5360 5360 5362 5364 5366 5368 5371
5393 5387 5385 5384 5380 5376 5374 5371 5368 5363 5361 5358 5356 5354 5353 5352 5350 5349 5348 5348 5347 5347 5347 5347 5346 5346 5346 5346 5346 5347 5349 5350 5351 5351 5351 5351 5352 5353 5355 5356 5357 5358 5361 5364
5379 5375 5376 5376 5375 5369 5367 5364 5360 5357 5355 5352 5350 5348 5346 5345 5344 5343 5342 5342 5342 5342 5342 5341 5341 5341 5340 5340 5341 5341 5342 5343 5343 5344 5344 5344 5345 5346 5347 5348 5351 5352 5354 5355
5374 5370 5371 5369 5365 5361 5359 5356 5354 5352 5350 5347 5343 5342 5340 5339 5339 5338 5337 5336 5337 5337 5337 5336 5336 5336 5335 5335 5335 5336 5337 5337 5337 5338 5338 5338 5339 5339 5340 5341 5342 5344 5345 5347
5369 5364 5362 5360 5358 5356 5352 5350 5349 5347 5344 5341 5338 5337 5335 5334 5333 5332 5332 5331 5332 5333 5332 5331 5331 5330 5329 5329 5330 5330 5331 5330 5330 5331 5331 5332 5332 5332 5333 5334 5335 5335 5337 5338
5361 5360 5357 5356 5354 5351 5348 5345 5343 5341 5338 5335 5333 5331 5329 5328 5328 5327 5327 5326 5327 5326 5326 5325 5325 5324 5324 5324 5324 5325 5325 5325 5324 5325 5325 5325 5325 5326 5326 5326 5327 5328 5328 5329
5357 5356 5354 5352 5350 5346 5343 5340 5337 5335 5332 5330 5327 5325 5324 5323 5324 5323 5321 5321 5321 5321 5321 5320 5320 5320 5320 5319 5319 5319 5319 5319 5319 5319 5319 5319 5319 5319 5319 5320 5320 5321 5322 5323
5350 5348 5346 5345 5343 5341 5338 5336 5333 5330 5327 5324 5322 5320 5319 5319 5318 5317 5316 5315 5316 5317 5317 5315 5315 5315 5315 5314 5314 5314 5314 5314 5313 5312 5312 5312 5312 5312 5313 5313 5314 5315 5316 5318
5343 5342 5340 5339 5337 5335 5333 5330 5327 5325 5322 5320 5317 5316 5314 5313 5312 5311 5311 5311 5313 5313 5311 5310 5311 5311 5310 5310 5309 5309 5309 5309 5308 5307 5307 5307 5306 5306 5307 5307 5308 5309 5310 5312
5337 5335 5333 5332 5330 5329 5327 5325 5323 5321 5318 5315 5314 5312 5311 5309 5307 5306 5307 5309 5307 5306 5306 5306 5306 5306 5305 5305 5305 5305 5304 5303 5303 5302 5301 5301 5301 5301 5301 5301 5302 5303 5305 5307
5330 5329 5327 5326 5324 5323 5321 5320 5318 5315 5313 5311 5309 5307 5305 5304 5302 5302 5302 5303 5302 5302 5302 5302 5302 5301 5302 5301 5300 5299 5299 5298 5297 5297 5296 5296 5295 5296 5296 5296 5297 5299 5301 5303
5325 5323 5322 5320 5319 5317 5315 5314 5312 5311 5309 5307 5305 5303 5302 5301 5299 5299 5299 5298 5297 5297 5297 5297 5297 5297 5297 5296 5295 5294 5293 5293 5292 5291 5291 5291 5290 5291 5291 5292 5293 5295 5297 5299
5320 5318 5316 5314 5312 5311 5310 5310 5307 5305 5303 5302 5300 5298 5297 5296 5295 5294 5294 5293 5293 5293 5293 5293 5293 5293 5292 5291 5290 5289 5288 5288 5287 5287 5286 5286 5286 5286 5287 5288 5289 5291 5293 5295
5314 5312 5310 5308 5308 5309 5307 5304 5301 5300 5299 5298 5296 5294 5293 5292 5292 5291 5289 5289 5288 5288 5288 5287 5288 5287 5286 5286 5285 5284 5283 5283 5282 5282 5282 5282 5282 5283 5284 5285 5286 5288 5290 5293
5310 5309 5308 5306 5305 5304 5302 5300 5299 5298 5296 5295 5293 5291 5289 5288 5286 5285 5284 5284 5283 5283 5283 5282 5282 5282 5281 5280 5280 5279 5279 5278 5277 5277 5277 5278 5278 5279 5280 5281 5283 5285 5287 5290
5304 5303 5301 5301 5300 5298 5297 5296 5295 5294 5292 5291 5289 5287 5285 5283 5282 5281 5280 5279 5278 5278 5277 5277 5277 5277 5276 5276 5275 5274 5274 5274 5273 5273 5274 5274 5275 5276 5277 5278 5280 5282 5285 5287